Terminal Aerodrome Forecast
Issued by NWS Aberdeen, SD

Home | Current Version | Previous Version | Text Only | Print | Product List | Glossary On
Versions: 1 2 3 4 5 6 7 8 9 10 11 12 13 14 15 16 17 18 19 20 21 22 23 24 25 26 27 28 29 30 31 32 33 34 35 36 37 38 39 40 41 42 43 44 45 46 47 48 49 50
000
FTAK31 PAFA 252336
TAFABR
TAF
PABR 252336Z 2600/2624 03006KT P6SM VCSH FEW009 BKN015
      TEMPO 2600/2604 FEW007 SCT015 BKN110
     FM260600 03006KT 3SM BR BKN007
     FM260900 03006KT 1 1/2SM -DZSN BR OVC006
     FM261500 35006KT 2SM BR VCSH OVC006
     FM262100 33008KT 6SM BR OVC006=

USA.gov is the U.S. government's official web portal to all federal, state and local government web resources and services.